• In Russia
  • List of Countries
  • For 7 days
  • Water Temperature
  • Satellite Maps
  • Weather Map
  • Weather Widgets
  • user-avatar
    Login

    Hourly Weather Albany

    Today, 9 December, Friday

    Time Temperature Precipitation Wind Pressure Humidity
    00:00 +13°C° 0 mm 5 mps 761 mmHg 82%
    01:00 +12°C° 0 mm 5 mps 761 mmHg 84%
    02:00 +12°C° 0 mm 5 mps 760 mmHg 85%
    03:00 +12°C° 0 mm 5 mps 760 mmHg 86%
    04:00 +12°C° 0 mm 5 mps 760 mmHg 86%
    05:00 +11°C° 0 mm 4 mps 760 mmHg 86%
    06:00 +14°C° 0 mm 4 mps 760 mmHg 75%
    07:00 +17°C° 0 mm 4 mps 760 mmHg 64%
    08:00 +20°C° 0 mm 4 mps 760 mmHg 53%
    09:00 +23°C° 0 mm 4 mps 759 mmHg 45%
    10:00 +27°C° 0 mm 3 mps 759 mmHg 36%
    11:00 +30°C° 0 mm 3 mps 759 mmHg 28%
    12:00 +32°C° 0 mm 4 mps 758 mmHg 28%
    13:00 +32°C° 0 mm 4 mps 758 mmHg 28%
    14:00 +33°C° 0 mm 4 mps 757 mmHg 28%
    15:00 +30°C° 0 mm 4 mps 757 mmHg 33%
    16:00 +28°C° 0 mm 5 mps 757 mmHg 37%
    17:00 +27°C° 0 mm 5 mps 757 mmHg 42%
    18:00 +23°C° 0 mm 4 mps 758 mmHg 52%
    19:00 +21°C° 0 mm 4 mps 758 mmHg 61%
    20:00 +19°C° 0 mm 4 mps 758 mmHg 70%
    21:00 +18°C° 0 mm 4 mps 759 mmHg 75%
    22:00 +17°C° 0 mm 4 mps 759 mmHg 79%
    23:00 +17°C° 0 mm 4 mps 759 mmHg 83%

    Tomorrow, 10 December, Saturday

    Time Temperature Precipitation Wind Pressure Humidity
    00:00 +15°C° 0 mm 4 mps 759 mmHg 85%
    01:00 +15°C° 0 mm 4 mps 758 mmHg 87%
    02:00 +15°C° 0 mm 4 mps 758 mmHg 89%
    03:00 +15°C° 0 mm 4 mps 758 mmHg 90%
    04:00 +15°C° 0 mm 4 mps 758 mmHg 91%
    05:00 +15°C° 0 mm 4 mps 758 mmHg 92%
    06:00 +18°C° 0 mm 4 mps 758 mmHg 81%
    07:00 +20°C° 0 mm 4 mps 758 mmHg 70%
    08:00 +23°C° 0 mm 5 mps 758 mmHg 59%
    09:00 +26°C° 0 mm 5 mps 757 mmHg 50%
    10:00 +28°C° 0 mm 6 mps 756 mmHg 42%
    11:00 +32°C° 0 mm 6 mps 756 mmHg 33%
    12:00 +33°C° 0 mm 7 mps 755 mmHg 31%
    13:00 +33°C° 0 mm 7 mps 754 mmHg 30%
    14:00 +34°C° 0 mm 7 mps 753 mmHg 28%
    15:00 +33°C° 0 mm 7 mps 753 mmHg 32%
    16:00 +30°C° 0 mm 7 mps 752 mmHg 36%
    17:00 +29°C° 0 mm 7 mps 751 mmHg 40%
    18:00 +27°C° 0 mm 6 mps 752 mmHg 46%
    19:00 +25°C° 0 mm 5 mps 752 mmHg 53%
    20:00 +22°C° 0 mm 4 mps 752 mmHg 59%
    21:00 +20°C° 0 mm 3 mps 752 mmHg 66%
    22:00 +19°C° 0 mm 3 mps 752 mmHg 73%
    23:00 +18°C° 0 mm 2 mps 752 mmHg 79%

    Day after tomorrow, 11 December, Sunday

    Time Temperature Precipitation Wind Pressure Humidity
    00:00 +18°C° 0 mm 3 mps 752 mmHg 79%
    01:00 +18°C° 0 mm 4 mps 751 mmHg 79%
    02:00 +17°C° 0 mm 5 mps 751 mmHg 79%
    03:00 +17°C° 0 mm 5 mps 751 mmHg 82%
    04:00 +17°C° 0 mm 5 mps 752 mmHg 85%
    05:00 +16°C° 0 mm 5 mps 752 mmHg 88%
    06:00 +17°C° 0 mm 5 mps 753 mmHg 81%
    07:00 +20°C° 0 mm 5 mps 753 mmHg 75%
    08:00 +21°C° 0 mm 5 mps 754 mmHg 68%
    09:00 +23°C° 0 mm 5 mps 754 mmHg 60%
    10:00 +26°C° 0 mm 5 mps 754 mmHg 52%
    11:00 +28°C° 0 mm 5 mps 755 mmHg 44%
    12:00 +26°C° 0.1 mm 5 mps 754 mmHg 51%
    13:00 +23°C° 0.1 mm 5 mps 754 mmHg 58%
    14:00 +22°C° 0.1 mm 5 mps 754 mmHg 65%
    15:00 +21°C° 0.1 mm 5 mps 754 mmHg 68%
    16:00 +21°C° 0.1 mm 5 mps 753 mmHg 70%
    17:00 +20°C° 0.1 mm 6 mps 753 mmHg 72%
    18:00 +19°C° 0 mm 5 mps 753 mmHg 77%
    19:00 +18°C° 0 mm 4 mps 753 mmHg 81%
    20:00 +17°C° 0 mm 3 mps 754 mmHg 85%
    21:00 +17°C° 0.2 mm 3 mps 754 mmHg 86%
    22:00 +17°C° 0.2 mm 3 mps 754 mmHg 86%
    23:00 +16°C° 0.2 mm 3 mps 754 mmHg 87%

    12 December, Monday

    Time Temperature Precipitation Wind Pressure Humidity
    00:00 +16°C° 1.2 mm 3 mps 754 mmHg 89%
    01:00 +16°C° 1.2 mm 3 mps 754 mmHg 90%
    02:00 +16°C° 1.2 mm 3 mps 753 mmHg 92%
    03:00 +16°C° 4 mm 3 mps 753 mmHg 92%
    04:00 +16°C° 4 mm 3 mps 753 mmHg 93%
    05:00 +15°C° 4 mm 4 mps 753 mmHg 93%
    06:00 +15°C° 2.2 mm 4 mps 753 mmHg 93%
    07:00 +15°C° 2.2 mm 4 mps 753 mmHg 94%
    08:00 +15°C° 2.2 mm 4 mps 754 mmHg 94%
    09:00 +15°C° 0.7 mm 4 mps 753 mmHg 92%
    10:00 +17°C° 0.7 mm 4 mps 753 mmHg 91%
    11:00 +16°C° 0.7 mm 5 mps 753 mmHg 90%
    12:00 +16°C° 1.8 mm 5 mps 753 mmHg 91%
    13:00 +15°C° 1.8 mm 5 mps 753 mmHg 93%
    14:00 +15°C° 1.8 mm 5 mps 753 mmHg 94%
    15:00 +15°C° 3.2 mm 6 mps 753 mmHg 93%
    16:00 +14°C° 3.2 mm 6 mps 753 mmHg 93%
    17:00 +14°C° 3.2 mm 7 mps 754 mmHg 93%
    18:00 +14°C° 1.1 mm 6 mps 754 mmHg 92%
    19:00 +14°C° 1.1 mm 6 mps 755 mmHg 92%
    20:00 +13°C° 1.1 mm 5 mps 755 mmHg 91%
    21:00 +13°C° 0.3 mm 6 mps 756 mmHg 91%
    22:00 +13°C° 0.3 mm 6 mps 756 mmHg 91%
    23:00 +14°C° 0.3 mm 6 mps 756 mmHg 90%

    13 December, Tuesday

    Time Temperature Precipitation Wind Pressure Humidity
    00:00 +13°C° 0.2 mm 6 mps 756 mmHg 89%
    01:00 +13°C° 0.2 mm 6 mps 756 mmHg 88%
    02:00 +13°C° 0.2 mm 6 mps 756 mmHg 87%
    03:00 +13°C° 0 mm 6 mps 756 mmHg 86%
    04:00 +13°C° 0 mm 6 mps 757 mmHg 85%
    05:00 +13°C° 0 mm 6 mps 757 mmHg 84%
    06:00 +14°C° 0 mm 6 mps 758 mmHg 83%
    07:00 +14°C° 0 mm 6 mps 758 mmHg 81%
    08:00 +14°C° 0 mm 5 mps 759 mmHg 79%
    09:00 +15°C° 0 mm 5 mps 759 mmHg 74%
    10:00 +16°C° 0 mm 6 mps 759 mmHg 69%
    11:00 +17°C° 0 mm 6 mps 759 mmHg 63%
    12:00 +17°C° 0.1 mm 5 mps 759 mmHg 67%
    13:00 +16°C° 0.1 mm 5 mps 759 mmHg 71%
    14:00 +16°C° 0.1 mm 5 mps 759 mmHg 75%
    15:00 +16°C° 0.1 mm 5 mps 760 mmHg 77%
    16:00 +15°C° 0.1 mm 5 mps 760 mmHg 79%
    17:00 +15°C° 0.1 mm 5 mps 760 mmHg 81%
    18:00 +15°C° 0 mm 5 mps 760 mmHg 82%
    19:00 +15°C° 0 mm 4 mps 761 mmHg 83%
    20:00 +15°C° 0 mm 4 mps 761 mmHg 83%
    21:00 +15°C° 0 mm 4 mps 761 mmHg 84%
    22:00 +15°C° 0 mm 4 mps 761 mmHg 84%
    23:00 +14°C° 0 mm 5 mps 761 mmHg 84%

    14 December, Wednesday

    Time Temperature Precipitation Wind Pressure Humidity
    00:00 +14°C° 0 mm 4 mps 761 mmHg 83%
    01:00 +14°C° 0 mm 4 mps 761 mmHg 81%
    02:00 +14°C° 0 mm 4 mps 761 mmHg 80%
    03:00 +14°C° 0 mm 4 mps 761 mmHg 79%
    04:00 +14°C° 0 mm 4 mps 762 mmHg 78%
    05:00 +14°C° 0 mm 3 mps 762 mmHg 76%
    06:00 +14°C° 0 mm 3 mps 762 mmHg 73%
    07:00 +16°C° 0 mm 3 mps 763 mmHg 69%
    08:00 +17°C° 0 mm 3 mps 763 mmHg 66%
    09:00 +17°C° 0 mm 3 mps 763 mmHg 63%
    10:00 +18°C° 0 mm 3 mps 763 mmHg 60%
    11:00 +18°C° 0 mm 3 mps 763 mmHg 58%
    12:00 +19°C° 0 mm 4 mps 763 mmHg 56%
    13:00 +20°C° 0 mm 4 mps 762 mmHg 54%
    14:00 +20°C° 0 mm 4 mps 762 mmHg 52%
    15:00 +19°C° 0 mm 4 mps 762 mmHg 55%
    16:00 +19°C° 0 mm 4 mps 762 mmHg 57%
    17:00 +18°C° 0 mm 4 mps 762 mmHg 59%
    18:00 +17°C° 0 mm 4 mps 763 mmHg 64%
    19:00 +15°C° 0 mm 4 mps 763 mmHg 69%
    20:00 +14°C° 0 mm 4 mps 763 mmHg 74%
    21:00 +13°C° 0 mm 3 mps 763 mmHg 76%
    22:00 +13°C° 0 mm 3 mps 763 mmHg 78%
    23:00 +12°C° 0 mm 3 mps 763 mmHg 80%
    Show more